Terminal Aerodrome Forecast
Issued by NWS Twin Cities, MN

Home | Current Version | Previous Version | Text Only | Print | Product List | Glossary On
Versions: 1 2 3 4 5 6 7 8 9 10 11 12 13 14
000
FTUS43 KMPX 250500
TAFSTC
TAF
KSTC 250531Z 2506/2606 28004KT P6SM SKC
     FM251800 26013G20KT P6SM SKC
     FM260000 29007KT P6SM SCT040 BKN150=

USA.gov is the U.S. government's official web portal to all federal, state and local government web resources and services.